When you browse on this site, cookies collect data to enhance your experience and personalize the content and advertising you see.
Visit our Privacy Policy to learn more. By continuing to use the site, you agree to this use of cookies and data.
  • In Austria
  • List of Countries
  • For 7 days
  • Water Temperature
  • Weather Map
  • News
  • Weather Widgets
  • user-avatar
    Login

    Hourly Weather Rzeszow

    Today, 19 September, Thursday

    Time Temperature Precipitation Wind Pressure Humidity
    00:00 +5°C° 0 mm 3 mps 747 mmHg 79%
    01:00 +5°C° 0 mm 3 mps 747 mmHg 83%
    02:00 +5°C° 0 mm 3 mps 747 mmHg 85%
    03:00 +5°C° 0 mm 3 mps 748 mmHg 86%
    04:00 +4°C° 0 mm 3 mps 748 mmHg 88%
    05:00 +5°C° 0.1 mm 3 mps 748 mmHg 86%
    06:00 +6°C° 0.1 mm 4 mps 748 mmHg 84%
    07:00 +7°C° 0.1 mm 4 mps 748 mmHg 81%
    08:00 +8°C° 0 mm 4 mps 748 mmHg 73%
    09:00 +10°C° 0 mm 5 mps 749 mmHg 65%
    10:00 +12°C° 0 mm 5 mps 749 mmHg 57%
    11:00 +13°C° 0 mm 5 mps 748 mmHg 55%
    12:00 +13°C° 0 mm 5 mps 748 mmHg 53%
    13:00 +14°C° 0 mm 5 mps 748 mmHg 51%
    14:00 +14°C° 0.1 mm 5 mps 748 mmHg 53%
    15:00 +13°C° 0.1 mm 4 mps 748 mmHg 56%
    16:00 +13°C° 0.1 mm 4 mps 748 mmHg 59%
    17:00 +11°C° 0 mm 4 mps 748 mmHg 65%
    18:00 +10°C° 0 mm 3 mps 748 mmHg 72%
    19:00 +8°C° 0 mm 2 mps 748 mmHg 78%
    20:00 +8°C° 0.1 mm 3 mps 748 mmHg 81%
    21:00 +7°C° 0.1 mm 3 mps 749 mmHg 84%
    22:00 +7°C° 0.1 mm 3 mps 749 mmHg 87%
    23:00 +5°C° 0 mm 3 mps 749 mmHg 89%

    Tomorrow, 20 September, Friday

    Time Temperature Precipitation Wind Pressure Humidity
    00:00 +5°C° 0 mm 3 mps 749 mmHg 90%
    01:00 +5°C° 0 mm 3 mps 749 mmHg 92%
    02:00 +4°C° 0 mm 3 mps 749 mmHg 93%
    03:00 +4°C° 0 mm 3 mps 750 mmHg 94%
    04:00 +3°C° 0 mm 3 mps 750 mmHg 95%
    05:00 +4°C° 0 mm 3 mps 750 mmHg 92%
    06:00 +5°C° 0 mm 3 mps 750 mmHg 90%
    07:00 +5°C° 0 mm 3 mps 750 mmHg 88%
    08:00 +7°C° 0 mm 4 mps 750 mmHg 78%
    09:00 +10°C° 0 mm 4 mps 751 mmHg 68%
    10:00 +12°C° 0 mm 4 mps 751 mmHg 58%
    11:00 +12°C° 0.1 mm 4 mps 751 mmHg 55%
    12:00 +13°C° 0.1 mm 4 mps 750 mmHg 53%
    13:00 +13°C° 0.1 mm 5 mps 750 mmHg 50%
    14:00 +13°C° 0.1 mm 4 mps 750 mmHg 53%
    15:00 +13°C° 0.1 mm 4 mps 750 mmHg 56%
    16:00 +13°C° 0.1 mm 4 mps 750 mmHg 59%
    17:00 +11°C° 0 mm 3 mps 750 mmHg 64%
    18:00 +10°C° 0 mm 2 mps 750 mmHg 69%
    19:00 +8°C° 0 mm 2 mps 750 mmHg 74%
    20:00 +8°C° 0 mm 2 mps 750 mmHg 76%
    21:00 +7°C° 0 mm 2 mps 751 mmHg 77%
    22:00 +8°C° 0 mm 1 mps 751 mmHg 79%
    23:00 +6°C° 0 mm 2 mps 751 mmHg 81%

    Day after tomorrow, 21 September, Saturday

    Time Temperature Precipitation Wind Pressure Humidity
    00:00 +6°C° 0 mm 2 mps 751 mmHg 83%
    01:00 +6°C° 0 mm 2 mps 751 mmHg 85%
    02:00 +5°C° 0 mm 2 mps 751 mmHg 86%
    03:00 +5°C° 0 mm 2 mps 751 mmHg 86%
    04:00 +5°C° 0 mm 2 mps 751 mmHg 87%
    05:00 +6°C° 0 mm 2 mps 751 mmHg 84%
    06:00 +7°C° 0 mm 2 mps 751 mmHg 80%
    07:00 +8°C° 0 mm 2 mps 751 mmHg 76%
    08:00 +10°C° 0 mm 3 mps 750 mmHg 69%
    09:00 +12°C° 0 mm 3 mps 750 mmHg 62%
    10:00 +14°C° 0 mm 3 mps 750 mmHg 54%
    11:00 +16°C° 0 mm 3 mps 750 mmHg 51%
    12:00 +17°C° 0 mm 3 mps 750 mmHg 49%
    13:00 +18°C° 0 mm 4 mps 749 mmHg 46%
    14:00 +17°C° 0 mm 3 mps 749 mmHg 49%
    15:00 +17°C° 0 mm 3 mps 749 mmHg 51%
    16:00 +17°C° 0 mm 2 mps 748 mmHg 54%
    17:00 +15°C° 0 mm 2 mps 748 mmHg 58%
    18:00 +13°C° 0 mm 2 mps 748 mmHg 62%
    19:00 +12°C° 0 mm 1 mps 748 mmHg 67%
    20:00 +10°C° 0 mm 2 mps 748 mmHg 67%
    21:00 +10°C° 0 mm 2 mps 748 mmHg 67%
    22:00 +9°C° 0 mm 2 mps 748 mmHg 67%
    23:00 +9°C° 0 mm 2 mps 748 mmHg 67%

    22 September, Sunday

    Time Temperature Precipitation Wind Pressure Humidity
    00:00 +9°C° 0 mm 2 mps 748 mmHg 67%
    01:00 +8°C° 0 mm 2 mps 748 mmHg 68%
    02:00 +8°C° 0 mm 2 mps 748 mmHg 69%
    03:00 +8°C° 0 mm 2 mps 747 mmHg 70%
    04:00 +8°C° 0 mm 2 mps 747 mmHg 71%
    05:00 +8°C° 0 mm 2 mps 747 mmHg 69%
    06:00 +9°C° 0 mm 2 mps 747 mmHg 66%
    07:00 +10°C° 0 mm 2 mps 747 mmHg 64%
    08:00 +12°C° 0 mm 3 mps 747 mmHg 59%
    09:00 +16°C° 0 mm 3 mps 747 mmHg 53%
    10:00 +18°C° 0 mm 4 mps 747 mmHg 48%
    11:00 +19°C° 0 mm 3 mps 746 mmHg 45%
    12:00 +20°C° 0 mm 3 mps 746 mmHg 43%
    13:00 +21°C° 0 mm 3 mps 745 mmHg 41%
    14:00 +20°C° 0 mm 3 mps 745 mmHg 44%
    15:00 +20°C° 0 mm 3 mps 744 mmHg 47%
    16:00 +19°C° 0 mm 3 mps 744 mmHg 50%
    17:00 +17°C° 0 mm 3 mps 744 mmHg 52%
    18:00 +16°C° 0 mm 3 mps 744 mmHg 54%
    19:00 +13°C° 0 mm 3 mps 744 mmHg 56%
    20:00 +13°C° 0 mm 3 mps 743 mmHg 54%
    21:00 +13°C° 0 mm 3 mps 743 mmHg 53%
    22:00 +13°C° 0 mm 3 mps 743 mmHg 52%
    23:00 +13°C° 0.1 mm 3 mps 743 mmHg 52%

    23 September, Monday

    Time Temperature Precipitation Wind Pressure Humidity
    00:00 +14°C° 0.1 mm 4 mps 742 mmHg 53%
    01:00 +14°C° 0.1 mm 4 mps 742 mmHg 53%
    02:00 +14°C° 0 mm 4 mps 741 mmHg 54%
    03:00 +14°C° 0 mm 5 mps 741 mmHg 55%
    04:00 +14°C° 0 mm 5 mps 741 mmHg 55%
    05:00 +14°C° 0.1 mm 5 mps 740 mmHg 60%
    06:00 +14°C° 0.1 mm 5 mps 740 mmHg 65%
    07:00 +14°C° 0.1 mm 5 mps 740 mmHg 71%
    08:00 +15°C° 0 mm 5 mps 739 mmHg 67%
    09:00 +16°C° 0 mm 5 mps 739 mmHg 63%
    10:00 +16°C° 0 mm 5 mps 739 mmHg 60%
    11:00 +17°C° 0 mm 5 mps 739 mmHg 59%
    12:00 +19°C° 0 mm 6 mps 738 mmHg 58%
    13:00 +19°C° 0 mm 6 mps 738 mmHg 57%
    14:00 +19°C° 0 mm 6 mps 738 mmHg 62%
    15:00 +17°C° 0 mm 6 mps 738 mmHg 67%
    16:00 +16°C° 0 mm 6 mps 737 mmHg 73%
    17:00 +15°C° 0 mm 6 mps 737 mmHg 75%
    18:00 +15°C° 0 mm 6 mps 737 mmHg 77%
    19:00 +14°C° 0 mm 5 mps 737 mmHg 79%
    20:00 +14°C° 0 mm 5 mps 738 mmHg 80%
    21:00 +14°C° 0 mm 5 mps 738 mmHg 81%
    22:00 +14°C° 0 mm 4 mps 738 mmHg 83%
    23:00 +14°C° 0.4 mm 4 mps 738 mmHg 86%

    24 September, Tuesday

    Time Temperature Precipitation Wind Pressure Humidity
    00:00 +13°C° 0.4 mm 4 mps 738 mmHg 89%
    01:00 +13°C° 0.4 mm 5 mps 738 mmHg 93%
    02:00 +13°C° 0.5 mm 5 mps 738 mmHg 92%
    03:00 +13°C° 0.5 mm 6 mps 738 mmHg 90%
    04:00 +13°C° 0.5 mm 6 mps 738 mmHg 89%
    05:00 +13°C° 0.1 mm 6 mps 738 mmHg 89%
    06:00 +13°C° 0.1 mm 5 mps 738 mmHg 88%
    07:00 +13°C° 0.1 mm 5 mps 738 mmHg 88%
    08:00 +13°C° 0.2 mm 6 mps 738 mmHg 87%
    09:00 +13°C° 0.2 mm 6 mps 738 mmHg 86%
    10:00 +13°C° 0.2 mm 6 mps 739 mmHg 85%
    11:00 +11°C° 0.4 mm 6 mps 739 mmHg 87%
    12:00 +11°C° 0.4 mm 6 mps 739 mmHg 89%
    13:00 +11°C° 0.4 mm 6 mps 739 mmHg 91%
    14:00 +13°C° 0.2 mm 5 mps 739 mmHg 90%
    15:00 +13°C° 0.2 mm 5 mps 739 mmHg 89%
    16:00 +13°C° 0.2 mm 4 mps 739 mmHg 88%
    17:00 +13°C° 0 mm 4 mps 739 mmHg 89%
    18:00 +13°C° 0 mm 3 mps 740 mmHg 90%
    19:00 +13°C° 0 mm 2 mps 740 mmHg 91%
    20:00 +13°C° 0 mm 2 mps 740 mmHg 92%
    21:00 +12°C° 0 mm 2 mps 740 mmHg 92%
    22:00 +11°C° 0 mm 3 mps 740 mmHg 93%
    23:00 +11°C° 0 mm 3 mps 740 mmHg 93%
    Show more